• In Deutschland
  • Länderverzeichnis
  • Für 7 Tage
  • Wassertemperatur
  • Satellitenkarten
  • Wetterkarte
  • Widgets
  • user-avatar
    Anmelden

    Stündliche Wetter Aslar

    Heute, 18 Oktober, Mittwoch

    Zeit Temperatur Niederschläge Wind Luftdruck Luftfeuchtigkeit
    00:00 +11°C° 0 mm 0 m/S 735 mmHg 84%
    01:00 +12°C° 0 mm 1 m/S 735 mmHg 84%
    02:00 +12°C° 0 mm 1 m/S 734 mmHg 85%
    03:00 +12°C° 0 mm 1 m/S 734 mmHg 85%
    04:00 +11°C° 0 mm 1 m/S 733 mmHg 85%
    05:00 +11°C° 0 mm 1 m/S 733 mmHg 85%
    06:00 +11°C° 0 mm 1 m/S 733 mmHg 85%
    07:00 +10°C° 0 mm 1 m/S 733 mmHg 85%
    08:00 +12°C° 0 mm 1 m/S 733 mmHg 78%
    09:00 +14°C° 0 mm 2 m/S 733 mmHg 71%
    10:00 +16°C° 0 mm 2 m/S 733 mmHg 65%
    11:00 +17°C° 0 mm 2 m/S 733 mmHg 62%
    12:00 +18°C° 0 mm 2 m/S 733 mmHg 59%
    13:00 +19°C° 0 mm 2 m/S 733 mmHg 56%
    14:00 +19°C° 0 mm 2 m/S 732 mmHg 59%
    15:00 +18°C° 0 mm 2 m/S 732 mmHg 62%
    16:00 +18°C° 0 mm 2 m/S 732 mmHg 65%
    17:00 +16°C° 0 mm 1 m/S 732 mmHg 71%
    18:00 +15°C° 0 mm 1 m/S 732 mmHg 77%
    19:00 +13°C° 0 mm 1 m/S 732 mmHg 83%
    20:00 +12°C° 0 mm 1 m/S 732 mmHg 84%
    21:00 +12°C° 0 mm 1 m/S 732 mmHg 85%
    22:00 +12°C° 0 mm 1 m/S 732 mmHg 86%
    23:00 +11°C° 0 mm 1 m/S 732 mmHg 87%

    Morgen, 19 Oktober, Donnerstag

    Zeit Temperatur Niederschläge Wind Luftdruck Luftfeuchtigkeit
    00:00 +11°C° 0 mm 1 m/S 732 mmHg 87%
    01:00 +11°C° 0 mm 1 m/S 732 mmHg 88%
    02:00 +11°C° 0 mm 1 m/S 732 mmHg 88%
    03:00 +11°C° 0 mm 1 m/S 732 mmHg 88%
    04:00 +10°C° 0 mm 1 m/S 731 mmHg 88%
    05:00 +10°C° 0 mm 1 m/S 731 mmHg 87%
    06:00 +10°C° 0 mm 1 m/S 731 mmHg 87%
    07:00 +10°C° 0 mm 1 m/S 731 mmHg 87%
    08:00 +12°C° 0 mm 1 m/S 731 mmHg 80%
    09:00 +14°C° 0 mm 1 m/S 732 mmHg 73%
    10:00 +15°C° 0 mm 2 m/S 732 mmHg 66%
    11:00 +17°C° 0 mm 2 m/S 732 mmHg 62%
    12:00 +18°C° 0 mm 2 m/S 732 mmHg 59%
    13:00 +19°C° 0 mm 2 m/S 732 mmHg 56%
    14:00 +19°C° 0 mm 2 m/S 731 mmHg 58%
    15:00 +18°C° 0 mm 2 m/S 731 mmHg 60%
    16:00 +18°C° 0 mm 2 m/S 731 mmHg 62%
    17:00 +17°C° 0 mm 2 m/S 731 mmHg 67%
    18:00 +15°C° 0 mm 2 m/S 731 mmHg 73%
    19:00 +13°C° 0 mm 1 m/S 731 mmHg 78%
    20:00 +13°C° 0 mm 1 m/S 731 mmHg 79%
    21:00 +13°C° 0 mm 1 m/S 731 mmHg 80%
    22:00 +12°C° 0 mm 1 m/S 731 mmHg 81%
    23:00 +12°C° 0 mm 1 m/S 731 mmHg 81%

    übermorgen, 20 Oktober, Freitag

    Zeit Temperatur Niederschläge Wind Luftdruck Luftfeuchtigkeit
    00:00 +12°C° 0 mm 1 m/S 731 mmHg 81%
    01:00 +12°C° 0 mm 1 m/S 731 mmHg 81%
    02:00 +12°C° 0 mm 1 m/S 731 mmHg 81%
    03:00 +12°C° 0 mm 1 m/S 731 mmHg 81%
    04:00 +12°C° 0 mm 1 m/S 731 mmHg 81%
    05:00 +12°C° 0 mm 1 m/S 731 mmHg 82%
    06:00 +11°C° 0 mm 1 m/S 731 mmHg 83%
    07:00 +11°C° 0 mm 1 m/S 731 mmHg 84%
    08:00 +12°C° 0 mm 1 m/S 731 mmHg 80%
    09:00 +14°C° 0 mm 2 m/S 732 mmHg 75%
    10:00 +15°C° 0 mm 2 m/S 732 mmHg 71%
    11:00 +15°C° 0,1 mm 2 m/S 732 mmHg 71%
    12:00 +16°C° 0,1 mm 2 m/S 732 mmHg 71%
    13:00 +16°C° 0,1 mm 2 m/S 732 mmHg 71%
    14:00 +16°C° 0,4 mm 2 m/S 732 mmHg 76%
    15:00 +15°C° 0,4 mm 2 m/S 732 mmHg 80%
    16:00 +14°C° 0,4 mm 2 m/S 731 mmHg 85%
    17:00 +14°C° 0,3 mm 2 m/S 732 mmHg 87%
    18:00 +13°C° 0,3 mm 2 m/S 732 mmHg 89%
    19:00 +13°C° 0,3 mm 2 m/S 732 mmHg 91%
    20:00 +12°C° 0,1 mm 2 m/S 732 mmHg 92%
    21:00 +12°C° 0,1 mm 2 m/S 733 mmHg 93%
    22:00 +10°C° 0,1 mm 2 m/S 733 mmHg 94%
    23:00 +10°C° 0 mm 2 m/S 733 mmHg 94%

    21 Oktober, Samstag

    Zeit Temperatur Niederschläge Wind Luftdruck Luftfeuchtigkeit
    00:00 +11°C° 0 mm 1 m/S 733 mmHg 94%
    01:00 +10°C° 0 mm 1 m/S 733 mmHg 95%
    02:00 +10°C° 0 mm 1 m/S 733 mmHg 95%
    03:00 +10°C° 0 mm 2 m/S 732 mmHg 94%
    04:00 +10°C° 0 mm 2 m/S 732 mmHg 94%
    05:00 +10°C° 0 mm 2 m/S 732 mmHg 94%
    06:00 +12°C° 0 mm 2 m/S 732 mmHg 93%
    07:00 +12°C° 0 mm 2 m/S 732 mmHg 93%
    08:00 +12°C° 0 mm 3 m/S 732 mmHg 89%
    09:00 +13°C° 0 mm 3 m/S 732 mmHg 85%
    10:00 +14°C° 0 mm 4 m/S 732 mmHg 81%
    11:00 +15°C° 0 mm 4 m/S 732 mmHg 79%
    12:00 +16°C° 0 mm 5 m/S 732 mmHg 76%
    13:00 +16°C° 0 mm 5 m/S 732 mmHg 73%
    14:00 +17°C° 0,1 mm 4 m/S 732 mmHg 77%
    15:00 +15°C° 0,1 mm 4 m/S 731 mmHg 81%
    16:00 +14°C° 0,1 mm 4 m/S 731 mmHg 84%
    17:00 +13°C° 0,1 mm 4 m/S 732 mmHg 85%
    18:00 +12°C° 0,1 mm 4 m/S 732 mmHg 86%
    19:00 +12°C° 0,1 mm 4 m/S 732 mmHg 86%
    20:00 +11°C° 0 mm 4 m/S 732 mmHg 87%
    21:00 +11°C° 0 mm 3 m/S 732 mmHg 88%
    22:00 +10°C° 0 mm 3 m/S 733 mmHg 89%
    23:00 +10°C° 0 mm 3 m/S 733 mmHg 89%

    22 Oktober, Sonntag

    Zeit Temperatur Niederschläge Wind Luftdruck Luftfeuchtigkeit
    00:00 +8°C° 0 mm 4 m/S 732 mmHg 89%
    01:00 +8°C° 0 mm 4 m/S 732 mmHg 88%
    02:00 +8°C° 0 mm 4 m/S 732 mmHg 88%
    03:00 +8°C° 0 mm 4 m/S 732 mmHg 88%
    04:00 +7°C° 0 mm 4 m/S 732 mmHg 88%
    05:00 +7°C° 0 mm 4 m/S 732 mmHg 87%
    06:00 +7°C° 0 mm 4 m/S 732 mmHg 85%
    07:00 +7°C° 0 mm 4 m/S 732 mmHg 84%
    08:00 +7°C° 0 mm 4 m/S 732 mmHg 82%
    09:00 +8°C° 0 mm 4 m/S 732 mmHg 80%
    10:00 +8°C° 0 mm 4 m/S 733 mmHg 77%
    11:00 +8°C° 0,2 mm 4 m/S 733 mmHg 79%
    12:00 +8°C° 0,2 mm 4 m/S 733 mmHg 80%
    13:00 +8°C° 0,2 mm 4 m/S 733 mmHg 81%
    14:00 +8°C° 0,3 mm 4 m/S 734 mmHg 81%
    15:00 +8°C° 0,3 mm 4 m/S 734 mmHg 82%
    16:00 +8°C° 0,3 mm 4 m/S 734 mmHg 83%
    17:00 +7°C° 0,1 mm 4 m/S 735 mmHg 85%
    18:00 +8°C° 0,1 mm 3 m/S 735 mmHg 87%
    19:00 +7°C° 0,1 mm 3 m/S 736 mmHg 89%
    20:00 +7°C° 0 mm 3 m/S 736 mmHg 90%
    21:00 +6°C° 0 mm 2 m/S 737 mmHg 90%
    22:00 +5°C° 0 mm 2 m/S 737 mmHg 91%
    23:00 +5°C° 0 mm 2 m/S 737 mmHg 91%

    23 Oktober, Montag

    Zeit Temperatur Niederschläge Wind Luftdruck Luftfeuchtigkeit
    00:00 +5°C° 0 mm 2 m/S 738 mmHg 91%
    01:00 +4°C° 0 mm 2 m/S 738 mmHg 91%
    02:00 +4°C° 0 mm 2 m/S 738 mmHg 91%
    03:00 +4°C° 0 mm 2 m/S 738 mmHg 91%
    04:00 +3°C° 0 mm 2 m/S 738 mmHg 92%
    05:00 +3°C° 0 mm 2 m/S 738 mmHg 92%
    06:00 +3°C° 0 mm 2 m/S 739 mmHg 92%
    07:00 +3°C° 0 mm 2 m/S 739 mmHg 92%
    08:00 +4°C° 0 mm 2 m/S 739 mmHg 88%
    09:00 +6°C° 0 mm 2 m/S 739 mmHg 84%
    10:00 +8°C° 0 mm 3 m/S 740 mmHg 79%
    11:00 +9°C° 0 mm 3 m/S 740 mmHg 75%
    12:00 +10°C° 0 mm 3 m/S 739 mmHg 71%
    13:00 +11°C° 0 mm 3 m/S 739 mmHg 67%
    14:00 +11°C° 0 mm 3 m/S 739 mmHg 68%
    15:00 +12°C° 0 mm 2 m/S 739 mmHg 69%
    16:00 +12°C° 0 mm 2 m/S 739 mmHg 70%
    17:00 +10°C° 0 mm 2 m/S 739 mmHg 75%
    18:00 +8°C° 0 mm 2 m/S 739 mmHg 80%
    19:00 +7°C° 0 mm 2 m/S 739 mmHg 85%
    20:00 +7°C° 0 mm 2 m/S 739 mmHg 86%
    21:00 +6°C° 0 mm 2 m/S 739 mmHg 88%
    22:00 +6°C° 0 mm 2 m/S 739 mmHg 89%
    23:00 +6°C° 0 mm 2 m/S 739 mmHg 90%
    Mehr zeigen